Regional Weather Roundup
Issued by NWS

Home | Current Version | Previous Version | Text Only | Print | Product List | Glossary Off
Versions: 1 2 3 4 5 6 7 8 9 10 11 12 13 14 15 16 17 18 19 20 21 22 23 24 25 26 27 28 29 30 31 32 33 34 35 36 37 38 39 40 41 42 43 44 45 46 47 48 49 50

727
ASUS43 KLSX 252310
RWRMO

WEATHER SUMMARY FOR MISSOURI
NATIONAL WEATHER SERVICE SPRINGFIELD MO
600 PM CDT THU AUG 25 2016

NOTE: "FAIR" INDICATES FEW OR NO CLOUDS BELOW 12,000 FEET WITH NO
       SIGNIFICANT WEATHER AND/OR OBSTRUCTIONS TO VISIBILITY.
       CURRENT SKY AND/OR WEATHER CONDITIONS ARE NOT AVAILABLE FOR
       CHILLICOTHE AND FARMINGTON.

MOZ001>031-035>038-043-044-053-054-260000-
...NORTHERN AND WESTERN MISSOURI...

CITY           SKY/WX    TMP DP  RH WIND       PRES   REMARKS
KANSAS CTY INT PTSUNNY   78  68  71 N14       30.04F
KANSAS C DTWN  PTSUNNY   83  70  64 N9        30.01F
LEE`S SUMMIT   PTSUNNY   83  69  62 N6        30.03F
ST JOSEPH      PTSUNNY   77  66  68 NE12      30.06S
KIRKSVILLE     PTSUNNY   77  66  68 N10       30.07S

$$
MOZ066>068-077>081-088>096-101>105-260000-
...SOUTHWEST MISSOURI...

CITY           SKY/WX    TMP DP  RH WIND       PRES   REMARKS
SPRINGFIELD    CLOUDY    90  67  46 S14       30.02S HX  93
JOPLIN         TSTM      76  72  87 SW13G22   30.04R FOG
BRANSON        PTSUNNY   86  72  62 SE9       30.06F HX  92

$$
MOZ032>034-039>042-045>050-055>058-069>072-260000-
...CENTRAL MISSOURI...

CITY           SKY/WX    TMP DP  RH WIND       PRES   REMARKS
COLUMBIA       CLOUDY    82  76  81 E3        30.03R
JEFFERSON CITY CLOUDY    82  75  79 CALM      30.01R
ROLLA          SUNNY     86  74  67 S5        30.04R HX  94
SEDALIA        CLOUDY    86  72  62 CALM      30.04R HX  92
WHITEMAN AFB   PTSUNNY   86  73  64 N3        30.01S HX  92
OSAGE BEACH    CLOUDY    73  72  96 CALM      30.05F

$$
MOZ051-052-059>065-260000-
...EAST CENTRAL MISSOURI...

CITY           SKY/WX    TMP DP  RH WIND       PRES   REMARKS
ST LOUIS INTL  MOSUNNY   92  70  48 SW7       30.02S HX  97
SPIRIT OF STL  MOSUNNY   91  73  55 SW5       30.01R HX  99
ST CHARLES     SUNNY     90  71  53 SW6       30.00S HX  96

$$
MOZ072>076-082>087-097>100-106>115-260000-
...SOUTH CENTRAL AND SOUTHEAST MISSOURI...

CITY           SKY/WX    TMP DP  RH WIND       PRES   REMARKS
CAPE GIRARDEAU NOT AVBL
FARMINGTON     MOSUNNY   88  74  63 S5        30.05S HX  96
POPLAR BLUFF   SUNNY     88  74  63 S5        30.02F HX  96
WEST PLAINS    CLOUDY    85  72  65 S5        30.08F HX  91

$$




USA.gov is the U.S. government's official web portal to all federal, state and local government web resources and services.